[[{"header":{"parameterUnit":"m.s-1","parameterCategory":2,"la1":30.2991,"la2":30.254,"lo1":-89.0895,"lo2":-89.0444,"dy":0.0017,"dx":0.0017,"nx":28,"ny":28,"refTime":"2024-02-27T09:00:00:Z","depth":"0","parameterNumber":2,"parameterNumberName":"U-component_of_CURRENTS"},"data":[0,0,0,0,0,0,0,0,0,0,0,0,0,0,0,0,0,0,0,0,0,0,0,0,0,0,0,0,0,0,0,0,0,0,0,0,0,0,0,0,0,0,0,0,0,0,0,0,0,0,0,0,0,0,0,0,0,0,0.2347,0.2347,0,0.23,0.23,0.2299,0.2259,0.2259,0.2259,0.2258,0.2241,0.2241,0.2241,0,0,0,0,0,0,0,0,0,0,0,0,0,0.2272,0.2274,0.2347,0.2347,0.2347,0.23,0.23,0.2299,0.2259,0.2259,0.2259,0.2258,0.2241,0.2241,0.2241,0,0,0,0,0,0,0,0,0,0,0,0,0,0.227,0.2275,0.2347,0.2324,0.2321,0.2301,0.2299,0.2298,0.2259,0.2259,0.2259,0.2258,0.2242,0.2241,0.2241,0.2242,0,0,0.2239,0.2239,0,0,0,0,0,0,0,0,0.2271,0.2273,0.2327,0.2325,0.2323,0.2288,0.2267,0.2282,0.2259,0.2279,0.2258,0.2258,0.2262,0.226,0.2247,0.2241,0.2241,0.2239,0.2239,0.2239,0.2238,0,0,0,0,0,0,0,0.2271,0.2274,0.2326,0.2327,0.2324,0.2271,0.2271,0.2268,0.2271,0.2278,0.2275,0.2275,0.226,0.2247,0.2246,0.224,0.2239,0.2239,0.2238,0.2238,0.2268,0.2269,0,0,0,0,0,0,0.2291,0.2275,0.2327,0.2324,0.2299,0.2273,0.2273,0.2297,0.227,0.2266,0.2275,0.2274,0.2248,0.2247,0.2245,0.2233,0.2239,0.2238,0.2238,0.2267,0.2268,0.2269,0,0,0,0,0,0,0.229,0.2297,0.2329,0.2299,0.23,0.2276,0.2302,0.2296,0.2276,0.2269,0.2265,0.2261,0.2248,0.2246,0.2234,0.2233,0.2238,0.2238,0.2265,0.2267,0.2268,0.2218,0,0,0,0,0,0,0.2288,0.2297,0.231,0.2302,0.2303,0.2295,0.2302,0.2295,0.2279,0.2275,0.2256,0.2254,0.2247,0.2235,0.2233,0.2233,0.2237,0.2264,0.2266,0.2268,0.2218,0.2218,0.2217,0,0,0,0,0,0.2286,0.2295,0.2311,0.2316,0.2326,0.2294,0.2287,0.2266,0.2278,0.2252,0.2253,0.2254,0.2248,0.2234,0.2233,0.2232,0.2263,0.2266,0.2268,0.2219,0.2218,0.2217,0,0,0,0,0,0,0.2245,0.2293,0.2309,0.2328,0.2307,0.2287,0.2261,0.2266,0.2246,0.2244,0.225,0.2247,0.2237,0.2252,0.2237,0.2254,0.2263,0.2266,0.2227,0.2226,0.2226,0.2223,0.2237,0,0,0,0,0,0.2254,0.2285,0.2295,0.2302,0.2293,0.2282,0.2268,0.2257,0.2245,0.2235,0.223,0.224,0.2248,0.2249,0.2246,0.2249,0.2263,0.2258,0.2257,0.2256,0.2258,0.228,0.2281,0.2277,0.2277,0.2277,0,0,0.2236,0.2267,0.228,0.2296,0.2278,0.2252,0.227,0.2238,0.2222,0.2239,0.221,0.2224,0.2248,0.2242,0.2243,0.2252,0.2265,0.2259,0.2258,0.226,0.2283,0.2283,0.2283,0.2279,0.2278,0.2278,0,0,0.22,0.2242,0.2247,0.2237,0.2225,0.2217,0.2211,0.2193,0.2187,0.2175,0.2191,0.2207,0.221,0.2225,0.224,0.2244,0.2254,0.2254,0.2248,0.227,0.2269,0.2269,0.2276,0.2277,0.2261,0.2261,0.2261,0,0.2169,0.2193,0.2228,0.2215,0.2198,0.2204,0.217,0.2165,0.2147,0.2156,0.2159,0.2198,0.2206,0.2232,0.2231,0.2239,0.2248,0.2239,0.2265,0.2266,0.2267,0.2273,0.2275,0.2259,0.2259,0.2259,0.226,0,0.2135,0.2142,0.2128,0.2135,0.2118,0.2082,0.2089,0.2077,0.209,0.2105,0.2129,0.2151,0.2186,0.2196,0.221,0.2233,0.2235,0.225,0.2257,0.2263,0.2271,0.2273,0.2256,0.2257,0.2257,0.2258,0,0,0.2081,0.2104,0.2094,0.2086,0.2074,0.2052,0.2037,0.2032,0.2038,0.2057,0.2079,0.2113,0.2153,0.2174,0.2205,0.2227,0.2232,0.2239,0.2241,0.2226,0.2266,0.2077,0.2062,0.2245,0.2246,0.2246,0.2262,0,0.2025,0.2005,0.2027,0.1975,0.1955,0.1967,0.1953,0.1963,0.1984,0.2006,0.2078,0.2102,0.214,0.2159,0.2191,0.2227,0.2239,0.2225,0.2279,0.2281,0.2095,0.2058,0.19,0.1884,0.2265,0.2266,0.2266,0,0.1969,0.1973,0.193,0.1921,0.191,0.1882,0.1875,0.1866,0.1919,0.1945,0.201,0.2066,0.2129,0.2147,0.2224,0.2213,0.2232,0.2255,0.2257,0.2099,0.2095,0.1945,0.1874,0.1814,0.227,0.227,0.2269,0,0.1916,0.1893,0.1863,0.1856,0.1851,0.1834,0.1823,0.185,0.1853,0.1913,0.193,0.203,0.2066,0.2134,0.2198,0.2211,0.2259,0.2288,0.2136,0.2124,0.2008,0.1982,0.1866,0.2314,0.2314,0.2314,0.2314,0,0.1854,0.1825,0.1838,0.1822,0.1777,0.1793,0.1761,0.1769,0.1803,0.18,0.19,0.1919,0.206,0.2116,0.2183,0.2151,0.2252,0.2112,0.2103,0.1982,0.1955,0.1913,0.1883,0.2314,0.2314,0.2314,0.2314,0,0.1795,0.1804,0.1769,0.1763,0.1752,0.1721,0.1705,0.1696,0.1725,0.1725,0.1743,0.1842,0.1893,0.2007,0.2101,0.2082,0.2006,0.2067,0.1898,0.1865,0.1606,0.1578,0.1423,0.1401,0.1885,0.188,0.1876,0,0.1763,0.1744,0.172,0.1693,0.1682,0.1651,0.1628,0.1649,0.1641,0.1664,0.1659,0.1714,0.1715,0.1772,0.1788,0.1821,0.1836,0.1648,0.162,0.153,0.1499,0.15,0.1498,0.1472,0.1465,0.1459,0.1455,0,0.1697,0.1689,0.1668,0.1622,0.1586,0.1553,0.1523,0.1508,0.1524,0.1514,0.1487,0.1484,0.1487,0.1428,0.1434,0.1451,0.1491,0.152,0.1497,0.1186,0.1117,0.1112,0.1533,0.1403,0.1408,0.1412,0.1415,0.1417,0.1632,0.1609,0.1584,0.1527,0.1496,0.1449,0.14,0.1376,0.1338,0.1275,0.1316,0.122,0.1127,0.1098,0.1113,0.0983,0.1096,0.0924,0.0911,0.0935,0.0839,0.11,0.0904,0.0907,0.0908,0.091,0.0912,0,0.1545,0.1534,0.1486,0.1424,0.1375,0.1381,0.1323,0.1263,0.118,0.1103,0.1037,0.0834,0.0706,0.0675,0.0508,0.0397,0.0485,0.0391,0.0412,0.0459,0.0747,0.0652,0.0305,0.0305,0.0305,0.0305,0.0305,0.0305,0.15,0.1446,0.1428,0.1321,0.1284,0.1197,0.1155,0.1059,0.0979,0.0782,0.0626,0.0562,0.0414,0.0144,-0.0017,-0.0004,0.004,-0.0052,0.0075,0.0307,0.0361,0.0411,0.0317,-0.0094,-0.0095,-0.0205,-0.0207,-0.0208]},{"header":{"parameterUnit":"m.s-1","parameterCategory":2,"la1":30.2991,"la2":30.254,"lo1":-89.0895,"lo2":-89.0444,"dy":0.0017,"dx":0.0017,"nx":28,"ny":28,"refTime":"2024-02-27T09:00:00:Z","depth":"0","parameterNumber":3,"parameterNumberName":"V-component_of_CURRENTS"},"data":[0,0,0,0,0,0,0,0,0,0,0,0,0,0,0,0,0,0,0,0,0,0,0,0,0,0,0,0,0,0,0,0,0,0,0,0,0,0,0,0,0,0,0,0,0,0,0,0,0,0,0,0,0,0,0,0,0,0,0.0697,0.0697,0,0.0707,0.0707,0.0707,0.0696,0.0696,0.0695,0.0695,0.0702,0.0703,0.0703,0,0,0,0,0,0,0,0,0,0,0,0,0,0.0666,0.0667,0.0697,0.0697,0.0697,0.0707,0.0707,0.0707,0.0696,0.0696,0.0695,0.0695,0.0702,0.0703,0.0703,0,0,0,0,0,0,0,0,0,0,0,0,0,0.0678,0.0667,0.0697,0.0693,0.0693,0.0707,0.0707,0.0707,0.0696,0.0696,0.0695,0.0695,0.0702,0.0703,0.0703,0.0721,0,0,0.0706,0.0707,0,0,0,0,0,0,0,0,0.0677,0.0679,0.0693,0.0693,0.0693,0.07,0.0699,0.0712,0.0697,0.0695,0.0695,0.0694,0.0702,0.0702,0.0706,0.0722,0.0722,0.0706,0.0707,0.0707,0.0707,0,0,0,0,0,0,0,0.0677,0.0679,0.0701,0.0694,0.0693,0.069,0.0691,0.0701,0.0702,0.0695,0.0694,0.0696,0.0701,0.0705,0.0706,0.0722,0.0706,0.0707,0.0708,0.0708,0.0754,0.0755,0,0,0,0,0,0,0.0676,0.0678,0.0701,0.0701,0.0683,0.0691,0.0692,0.0698,0.0702,0.0702,0.0696,0.0695,0.0704,0.0705,0.0706,0.0726,0.0707,0.0708,0.0708,0.0753,0.0754,0.0755,0,0,0,0,0,0,0.0676,0.0679,0.07,0.0689,0.0692,0.0692,0.0699,0.0699,0.0699,0.0702,0.0702,0.0696,0.0703,0.0705,0.0716,0.0726,0.0708,0.0709,0.0753,0.0754,0.0755,0.0767,0,0,0,0,0,0,0.0675,0.0678,0.0687,0.069,0.0693,0.0707,0.07,0.0699,0.0701,0.0699,0.0703,0.0703,0.0703,0.0715,0.0717,0.0727,0.071,0.0752,0.0753,0.0754,0.0766,0.0768,0.0771,0,0,0,0,0,0.0674,0.0688,0.0687,0.069,0.0703,0.0707,0.0708,0.0706,0.0701,0.0703,0.0707,0.0702,0.0724,0.0716,0.0718,0.0729,0.0751,0.0753,0.0754,0.0765,0.0768,0.0771,0,0,0,0,0,0,0.068,0.0689,0.0687,0.0704,0.0703,0.0705,0.0709,0.0707,0.0712,0.071,0.0711,0.0712,0.0724,0.0728,0.0719,0.0747,0.0737,0.074,0.0745,0.0748,0.075,0.0772,0.0711,0,0,0,0,0,0.0685,0.0698,0.0699,0.0712,0.0711,0.071,0.0713,0.071,0.0713,0.0714,0.0719,0.0726,0.0735,0.0741,0.0748,0.0766,0.0767,0.0775,0.0778,0.078,0.08,0.0788,0.0791,0.076,0.076,0.076,0,0,0.0691,0.0698,0.0705,0.0714,0.0713,0.072,0.071,0.0712,0.0726,0.0715,0.0736,0.0732,0.074,0.0757,0.0764,0.0761,0.0791,0.0782,0.0784,0.0803,0.079,0.0793,0.0795,0.0761,0.0761,0.0761,0,0,0.0701,0.0712,0.072,0.0722,0.0723,0.0728,0.0728,0.0729,0.0737,0.0755,0.0749,0.0755,0.0773,0.078,0.0786,0.081,0.08,0.0808,0.0843,0.083,0.0832,0.0834,0.0846,0.0849,0.0813,0.0813,0.0813,0,0.0706,0.0719,0.0722,0.0727,0.0733,0.0732,0.0738,0.0751,0.076,0.0776,0.0764,0.0794,0.0788,0.0817,0.0822,0.0816,0.0813,0.0827,0.0832,0.0834,0.0836,0.0847,0.085,0.0814,0.0814,0.0814,0.0814,0,0.0715,0.0727,0.0731,0.0742,0.075,0.0756,0.077,0.0787,0.0798,0.0812,0.084,0.0837,0.0858,0.085,0.0845,0.0861,0.0857,0.0829,0.0822,0.0839,0.0851,0.0854,0.0815,0.0815,0.0815,0.0814,0,0,0.0723,0.0735,0.0737,0.0744,0.0759,0.0766,0.08,0.0831,0.086,0.0873,0.0912,0.0918,0.0918,0.0926,0.0914,0.0905,0.0907,0.0877,0.0876,0.0886,0.0895,0.0951,0.0959,0.0869,0.087,0.087,0.09,0,0.0728,0.0737,0.0749,0.0769,0.0776,0.0796,0.0832,0.0863,0.089,0.0931,0.0944,0.0969,0.0948,0.0952,0.0944,0.0915,0.0914,0.0903,0.0881,0.0882,0.0925,0.0964,0.094,0.097,0.0903,0.0903,0.0904,0,0.0728,0.0742,0.0753,0.0788,0.0794,0.0811,0.0866,0.0898,0.0958,0.098,0.1015,0.1027,0.1046,0.1007,0.0993,0.0984,0.0952,0.0924,0.0924,0.0979,0.0943,0.0941,0.0978,0.1021,0.0908,0.0908,0.0907,0,0.072,0.0745,0.0756,0.0764,0.0804,0.0825,0.0854,0.091,0.0948,0.1012,0.1042,0.1072,0.1084,0.1055,0.1032,0.1001,0.1012,0.0955,0.0983,0.0987,0.0969,0.0971,0.1044,0.0943,0.0943,0.0943,0.0943,0,0.0717,0.0729,0.0753,0.0759,0.0793,0.0823,0.0871,0.0907,0.0972,0.1021,0.1062,0.1105,0.1089,0.1105,0.1063,0.1064,0.104,0.1017,0.1005,0.0975,0.0978,0.1016,0.1039,0.0944,0.0944,0.0944,0.0943,0,0.07,0.0711,0.073,0.077,0.0783,0.0806,0.0867,0.0907,0.0967,0.1033,0.1056,0.1127,0.1155,0.116,0.1126,0.111,0.1122,0.1093,0.1086,0.1074,0.1138,0.1162,0.1225,0.127,0.1126,0.1128,0.1129,0,0.0688,0.0695,0.0725,0.0735,0.075,0.0792,0.0824,0.0893,0.0939,0.1046,0.1077,0.1147,0.1194,0.1221,0.1219,0.121,0.1193,0.1174,0.1113,0.1178,0.1193,0.1179,0.1211,0.1087,0.1088,0.1088,0.1089,0,0.0677,0.0683,0.0699,0.0715,0.0738,0.0782,0.0833,0.0869,0.0961,0.102,0.1105,0.1154,0.1227,0.1238,0.1268,0.1246,0.1223,0.1192,0.1237,0.1179,0.1187,0.1211,0.1052,0.1096,0.1095,0.1095,0.1094,0.1094,0.0659,0.0669,0.068,0.0694,0.0728,0.0772,0.0802,0.0869,0.0941,0.1035,0.1091,0.1163,0.1213,0.1266,0.1276,0.1314,0.1304,0.1262,0.1289,0.1271,0.132,0.1216,0.1261,0.1261,0.1261,0.1262,0.1262,0,0.0635,0.0646,0.0658,0.0684,0.0717,0.0742,0.081,0.0848,0.0921,0.1013,0.1082,0.1178,0.1219,0.1274,0.1346,0.1381,0.1362,0.1397,0.1346,0.1376,0.1252,0.1257,0.133,0.133,0.133,0.133,0.133,0.133,0.0616,0.0619,0.0629,0.0662,0.0691,0.0736,0.0772,0.0828,0.09,0.1006,0.1092,0.1178,0.1304,0.1374,0.1451,0.1461,0.1517,0.1489,0.1566,0.1448,0.1435,0.1424,0.1434,0.1543,0.1543,0.1638,0.1639,0.164]}],[{"header":{"parameterUnit":"m.s-1","parameterCategory":2,"la1":30.2991,"la2":30.254,"lo1":-89.0895,"lo2":-89.0444,"dy":0.0017,"dx":0.0017,"nx":28,"ny":28,"refTime":"2024-02-27T09:00:00:Z","depth":"2","parameterNumber":2,"parameterNumberName":"U-component_of_CURRENTS"},"data":[0,0,0,0,0,0,0,0,0,0,0,0,0,0,0,0,0,0,0,0,0,0,0,0,0,0,0,0,0,0,0,0,0,0,0,0,0,0,0,0,0,0,0,0,0,0,0,0,0,0,0,0,0,0,0,0,0,0,0.2141,0.2141,0,0.2052,0.205,0.2048,0.2008,0.2009,0.201,0.2011,0.2067,0.2068,0.2068,0,0,0,0,0,0,0,0,0,0,0,0,0,0.2098,0.2099,0.2141,0.2141,0.2141,0.2052,0.205,0.2048,0.2008,0.2009,0.2011,0.2012,0.2067,0.2068,0.2068,0,0,0,0,0,0,0,0,0,0,0,0,0,0.2064,0.21,0.2141,0.2119,0.2116,0.2053,0.205,0.2047,0.2008,0.2009,0.2011,0.2012,0.2067,0.2068,0.2068,0.2039,0,0,0.207,0.2071,0,0,0,0,0,0,0,0,0.2066,0.2064,0.2122,0.212,0.2118,0.2052,0.2056,0.2055,0.2007,0.2037,0.2011,0.2013,0.2082,0.2081,0.2043,0.2042,0.2044,0.207,0.2071,0.2071,0.2071,0,0,0,0,0,0,0,0.2069,0.2067,0.2095,0.2122,0.2119,0.2052,0.2049,0.2053,0.2046,0.2035,0.2035,0.2041,0.208,0.2042,0.2045,0.2045,0.207,0.2071,0.2071,0.2072,0.2069,0.2068,0,0,0,0,0,0,0.2109,0.207,0.2098,0.2093,0.2108,0.2053,0.2049,0.2063,0.2042,0.2043,0.204,0.204,0.204,0.2044,0.2047,0.2053,0.2071,0.2072,0.2072,0.2069,0.2069,0.2068,0,0,0,0,0,0,0.2109,0.2113,0.2102,0.2087,0.2083,0.2055,0.2068,0.206,0.2033,0.2047,0.2048,0.2025,0.2042,0.2046,0.2051,0.2055,0.2072,0.2073,0.207,0.2069,0.2068,0.2042,0,0,0,0,0,0,0.2108,0.2113,0.2116,0.2091,0.2086,0.2057,0.2067,0.2058,0.204,0.2039,0.2034,0.2039,0.2043,0.2049,0.2051,0.2056,0.2073,0.207,0.2069,0.2068,0.2043,0.204,0.2037,0,0,0,0,0,0.2107,0.2112,0.2117,0.212,0.2098,0.2056,0.2044,0.2022,0.2038,0.2006,0.2017,0.204,0.2046,0.2049,0.2051,0.2057,0.2071,0.207,0.2069,0.2044,0.2041,0.2037,0,0,0,0,0,0,0.2089,0.2108,0.2113,0.2123,0.2092,0.2054,0.2024,0.2024,0.1998,0.2001,0.2026,0.203,0.2034,0.2046,0.205,0.2052,0.2065,0.2064,0.2046,0.2042,0.204,0.2057,0.2074,0,0,0,0,0,0.2092,0.2103,0.2096,0.2097,0.2082,0.2054,0.2033,0.2017,0.2004,0.1992,0.2005,0.2017,0.2025,0.2037,0.2033,0.2035,0.2046,0.2043,0.204,0.2037,0.2052,0.2069,0.2069,0.2064,0.2064,0.2064,0,0,0.2083,0.2099,0.2101,0.2094,0.2062,0.2026,0.204,0.2001,0.199,0.2007,0.1995,0.2002,0.202,0.2014,0.2019,0.2032,0.2035,0.2036,0.2034,0.205,0.2068,0.2069,0.2069,0.2064,0.2064,0.2064,0,0,0.2055,0.2081,0.2064,0.2044,0.2015,0.1997,0.1995,0.1962,0.1961,0.1948,0.1966,0.1978,0.1983,0.1997,0.2009,0.1992,0.2013,0.1994,0.2004,0.2019,0.202,0.2022,0.1999,0.1999,0.2002,0.2002,0.2002,0,0.203,0.203,0.2043,0.2016,0.2005,0.1993,0.1956,0.1944,0.1924,0.1937,0.1945,0.1959,0.1978,0.1993,0.1993,0.1988,0.1989,0.2015,0.2017,0.2018,0.202,0.1998,0.1997,0.2001,0.2001,0.2001,0.2001,0,0.1989,0.1978,0.196,0.1938,0.1924,0.1884,0.189,0.1871,0.1886,0.1898,0.1915,0.1927,0.195,0.1953,0.1975,0.1997,0.1988,0.2003,0.2028,0.2019,0.1995,0.1995,0.1999,0.1999,0.2,0.2,0,0,0.1926,0.193,0.191,0.19,0.1883,0.1861,0.1852,0.1843,0.1843,0.1855,0.1873,0.1902,0.1932,0.1948,0.1972,0.1996,0.2001,0.2014,0.2016,0.1995,0.2009,0.1682,0.1651,0.2021,0.2022,0.2022,0.1974,0,0.1864,0.1823,0.1842,0.1788,0.1768,0.1778,0.178,0.1787,0.1798,0.1809,0.1864,0.1891,0.1927,0.1944,0.1972,0.2009,0.2007,0.2011,0.2019,0.2019,0.1732,0.1642,0.1653,0.1583,0.1975,0.1975,0.1975,0,0.1789,0.1788,0.1752,0.1747,0.1736,0.1714,0.171,0.171,0.1745,0.1762,0.1803,0.1856,0.1922,0.1939,0.1998,0.2002,0.2004,0.2016,0.2015,0.1725,0.1691,0.1662,0.157,0.1976,0.1976,0.1976,0.1976,0,0.175,0.1702,0.1689,0.1687,0.1694,0.1685,0.1676,0.17,0.1711,0.1749,0.1761,0.1838,0.188,0.1924,0.1967,0.1999,0.1988,0.2033,0.1726,0.1704,0.1719,0.1692,0.2035,0.2035,0.2035,0.2035,0.2035,0,0.1693,0.1663,0.1668,0.167,0.1632,0.1665,0.1644,0.1631,0.1663,0.1666,0.1754,0.1762,0.1885,0.1905,0.1941,0.1797,0.1967,0.169,0.1653,0.1696,0.1669,0.2034,0.2035,0.2033,0.2034,0.2034,0.2035,0,0.1651,0.1661,0.1633,0.1632,0.1625,0.1602,0.1602,0.1592,0.1628,0.1625,0.1654,0.1731,0.1734,0.178,0.1824,0.1708,0.1648,0.1552,0.1549,0.1505,0.1368,0.1368,0.1206,0.1194,0.1183,0.1175,0.1167,0,0.1618,0.1617,0.1595,0.1574,0.1569,0.1552,0.1544,0.1564,0.1557,0.1589,0.1581,0.1602,0.1548,0.143,0.1342,0.1237,0.139,0.1065,0.1081,0.1293,0.1277,0.1294,0.1308,0.1131,0.1124,0.1119,0.1114,0,0.156,0.1564,0.1559,0.1521,0.1494,0.1468,0.1452,0.1439,0.1468,0.1457,0.142,0.1383,0.1251,0.1115,0.0899,0.0857,0.1075,0.092,0.1216,0.1254,0.1194,0.1186,0.121,0.1063,0.1068,0.1072,0.1075,0.1077,0.1501,0.1475,0.1478,0.1432,0.1414,0.1379,0.1331,0.1316,0.1282,0.1204,0.1217,0.1065,0.1003,0.0626,0.0573,0.0525,0.0583,0.0571,0.0605,0.0642,0.0555,0.047,0.019,0.019,0.019,0.019,0.019,0,0.1408,0.1414,0.1377,0.1334,0.1305,0.1316,0.1268,0.12,0.1109,0.1001,0.0895,0.0656,0.049,0.0476,0.032,0.0166,0.0353,0.0153,0.0499,0.0544,0.0586,0.0514,0.013,0.013,0.0129,0.0129,0,0,0.1369,0.1333,0.1322,0.124,0.1225,0.115,0.1108,0.098,0.0872,0.0681,0.0538,0.0401,0.0385,0.0229,0.0206,0.0174,0.0374,0.015,0.0206,0.0663,0.0705,0.0822,0.0754,0,0,0,0,0]},{"header":{"parameterUnit":"m.s-1","parameterCategory":2,"la1":30.2991,"la2":30.254,"lo1":-89.0895,"lo2":-89.0444,"dy":0.0017,"dx":0.0017,"nx":28,"ny":28,"refTime":"2024-02-27T09:00:00:Z","depth":"2","parameterNumber":3,"parameterNumberName":"V-component_of_CURRENTS"},"data":[0,0,0,0,0,0,0,0,0,0,0,0,0,0,0,0,0,0,0,0,0,0,0,0,0,0,0,0,0,0,0,0,0,0,0,0,0,0,0,0,0,0,0,0,0,0,0,0,0,0,0,0,0,0,0,0,0,0,0.0403,0.0404,0,0.041,0.0409,0.0409,0.0416,0.0417,0.0417,0.0418,0.0471,0.0472,0.0473,0,0,0,0,0,0,0,0,0,0,0,0,0,0.0397,0.0397,0.0403,0.0404,0.0404,0.041,0.0409,0.0409,0.0416,0.0417,0.0417,0.0418,0.0471,0.0472,0.0473,0,0,0,0,0,0,0,0,0,0,0,0,0,0.0397,0.0397,0.0403,0.0412,0.0413,0.041,0.0409,0.0409,0.0416,0.0417,0.0417,0.0418,0.0471,0.0472,0.0474,0.0468,0,0,0.0478,0.0479,0,0,0,0,0,0,0,0,0.0397,0.0397,0.041,0.0411,0.0412,0.0417,0.0427,0.0432,0.0416,0.041,0.0418,0.0419,0.046,0.0462,0.0455,0.047,0.0472,0.0478,0.0479,0.048,0.048,0,0,0,0,0,0,0,0.0397,0.0397,0.0401,0.041,0.0412,0.0415,0.0415,0.0427,0.0428,0.0411,0.0412,0.042,0.046,0.0453,0.0456,0.0473,0.0478,0.0479,0.048,0.0481,0.0475,0.0474,0,0,0,0,0,0,0.0404,0.0396,0.0401,0.0402,0.0411,0.0415,0.0415,0.0411,0.0427,0.0431,0.0419,0.042,0.0451,0.0455,0.0459,0.0491,0.048,0.0481,0.0482,0.0476,0.0475,0.0473,0,0,0,0,0,0,0.0403,0.0404,0.0401,0.0404,0.0404,0.0415,0.041,0.0411,0.0411,0.0434,0.0438,0.0419,0.0451,0.0457,0.0472,0.0492,0.0482,0.0483,0.0477,0.0475,0.0474,0.0532,0,0,0,0,0,0,0.0403,0.0403,0.0397,0.0404,0.0404,0.0402,0.041,0.0411,0.0416,0.0417,0.0435,0.0441,0.0452,0.0469,0.0473,0.0494,0.0484,0.0478,0.0476,0.0474,0.0531,0.0532,0.0533,0,0,0,0,0,0.0402,0.0404,0.0396,0.0397,0.0397,0.0403,0.0402,0.041,0.0415,0.0412,0.0425,0.044,0.0459,0.047,0.0475,0.0496,0.0479,0.0477,0.0475,0.053,0.0532,0.0533,0,0,0,0,0,0,0.0422,0.0406,0.0397,0.0399,0.0398,0.0406,0.0416,0.041,0.0415,0.0425,0.0437,0.0443,0.0464,0.0457,0.0468,0.048,0.0467,0.0466,0.0508,0.0509,0.0511,0.0533,0.0485,0,0,0,0,0,0.0416,0.0404,0.0397,0.0404,0.0405,0.0405,0.0408,0.041,0.042,0.0422,0.0436,0.0444,0.0454,0.0464,0.047,0.0482,0.0473,0.049,0.0491,0.0492,0.0508,0.0501,0.0505,0.0466,0.0466,0.0466,0,0,0.0429,0.0422,0.0415,0.0405,0.0412,0.0415,0.0409,0.0422,0.0437,0.0429,0.046,0.0456,0.0455,0.0473,0.048,0.0475,0.0493,0.0489,0.0491,0.0507,0.0499,0.0504,0.0508,0.0464,0.0464,0.0465,0,0,0.0448,0.0442,0.0429,0.0426,0.0428,0.0433,0.0435,0.0439,0.0453,0.0466,0.0468,0.0468,0.0484,0.0488,0.0491,0.0494,0.05,0.0492,0.0527,0.052,0.0524,0.0528,0.0511,0.0513,0.0493,0.0493,0.0493,0,0.0458,0.0446,0.0432,0.0427,0.0444,0.0442,0.0452,0.0463,0.0472,0.049,0.0483,0.0487,0.0491,0.0508,0.0518,0.0503,0.0499,0.0533,0.0526,0.053,0.0533,0.0514,0.0515,0.0496,0.0496,0.0495,0.0495,0,0.0462,0.0455,0.0464,0.0452,0.0466,0.0481,0.0497,0.0505,0.0521,0.0532,0.055,0.0536,0.0539,0.0533,0.054,0.0559,0.0549,0.0534,0.0536,0.0541,0.0519,0.052,0.0499,0.0499,0.0498,0.0497,0,0,0.0466,0.046,0.0454,0.0462,0.0483,0.0494,0.0531,0.0558,0.058,0.0582,0.0608,0.0613,0.0604,0.0604,0.0593,0.0591,0.0608,0.0587,0.0586,0.0593,0.0597,0.0569,0.0566,0.0606,0.0607,0.0607,0.0571,0,0.0471,0.0457,0.0465,0.0489,0.05,0.0523,0.0568,0.0597,0.0613,0.0637,0.0631,0.0658,0.0634,0.0642,0.0634,0.063,0.0614,0.0619,0.0571,0.0569,0.0563,0.0568,0.0549,0.0515,0.0571,0.0571,0.0571,0,0.0454,0.0458,0.0475,0.0516,0.0527,0.0551,0.0608,0.0645,0.0684,0.0696,0.0699,0.0711,0.0728,0.0693,0.0674,0.0687,0.0652,0.0626,0.0624,0.0584,0.0543,0.0517,0.0513,0.0572,0.0572,0.0572,0.0572,0,0.0452,0.0457,0.048,0.0493,0.0548,0.0577,0.0612,0.0663,0.071,0.0742,0.077,0.0768,0.0787,0.0747,0.072,0.071,0.0686,0.0652,0.0575,0.0572,0.0539,0.0532,0.0617,0.0617,0.0617,0.0617,0.0617,0,0.0453,0.0465,0.0477,0.05,0.0544,0.0592,0.0657,0.067,0.0733,0.0791,0.0812,0.0837,0.0812,0.0804,0.0743,0.0675,0.0698,0.059,0.0567,0.0553,0.0548,0.0585,0.0582,0.0615,0.0616,0.0616,0.0616,0,0.045,0.0459,0.0485,0.0532,0.055,0.0585,0.0674,0.0714,0.078,0.0845,0.0876,0.0916,0.0899,0.0846,0.0782,0.0715,0.0642,0.06,0.0585,0.0561,0.052,0.052,0.0508,0.0507,0.0506,0.0505,0.0504,0,0.043,0.0447,0.049,0.0512,0.0538,0.0599,0.0651,0.0719,0.0768,0.0884,0.0913,0.0946,0.093,0.0834,0.0734,0.0612,0.0605,0.052,0.0485,0.0534,0.0512,0.0513,0.0514,0.0454,0.0452,0.0452,0.0451,0,0.0411,0.0437,0.0476,0.0512,0.0554,0.0611,0.068,0.0719,0.0825,0.0885,0.0954,0.0964,0.0893,0.0772,0.0635,0.0557,0.0543,0.0497,0.0565,0.0486,0.048,0.0459,0.0463,0.0443,0.0444,0.0445,0.0445,0.0445,0.0397,0.0412,0.0464,0.0506,0.0561,0.0619,0.0653,0.0729,0.0808,0.0878,0.0906,0.0872,0.08,0.0567,0.0525,0.048,0.0458,0.0407,0.0411,0.0415,0.0417,0.041,0.036,0.036,0.0361,0.0361,0.0361,0,0.037,0.0409,0.044,0.0507,0.0565,0.06,0.068,0.0703,0.0767,0.0788,0.081,0.0658,0.0567,0.0505,0.0424,0.0382,0.0403,0.037,0.0395,0.0401,0.0406,0.041,0.035,0.035,0.0351,0.0351,0,0,0.0366,0.0398,0.0422,0.0494,0.0553,0.0609,0.0644,0.0657,0.0663,0.0631,0.0588,0.0544,0.0489,0.0413,0.0386,0.0371,0.04,0.0371,0.0373,0.0409,0.0416,0.0408,0.0416,0,0,0,0,0]}],[{"header":{"parameterUnit":"m.s-1","parameterCategory":2,"la1":30.2991,"la2":30.254,"lo1":-89.0895,"lo2":-89.0444,"dy":0.0017,"dx":0.0017,"nx":28,"ny":28,"refTime":"2024-02-27T09:00:00:Z","depth":"4","parameterNumber":2,"parameterNumberName":"U-component_of_CURRENTS"},"data":[0,0,0,0,0,0,0,0,0,0,0,0,0,0,0,0,0,0,0,0,0,0,0,0,0,0,0,0,0,0,0,0,0,0,0,0,0,0,0,0,0,0,0,0,0,0,0,0,0,0,0,0,0,0,0,0,0,0,-0.057,-0.0571,0,-0.0546,-0.0545,-0.0544,-0.0304,-0.0299,-0.0294,-0.029,0.0103,0.0109,0.0115,0,0,0,0,0,0,0,0,0,0,0,0,0,-0.0498,-0.0499,-0.057,-0.0571,-0.0572,-0.0546,-0.0545,-0.0543,-0.0305,-0.0299,-0.0293,-0.0287,0.0101,0.0108,0.0115,0,0,0,0,0,0,0,0,0,0,0,0,0,-0.0495,-0.0499,-0.057,-0.0459,-0.0449,-0.0547,-0.0545,-0.0543,-0.0306,-0.0299,-0.0291,-0.0285,0.0099,0.0108,0.0116,0.0025,0,0,0.0144,0.0147,0,0,0,0,0,0,0,0,-0.0496,-0.0496,-0.0474,-0.0467,-0.0457,-0.0431,-0.0376,-0.0339,-0.0308,-0.0347,-0.029,-0.0281,-0.0055,-0.0033,-0.0032,0.0044,0.0061,0.0144,0.015,0.0154,0.0156,0,0,0,0,0,0,0,-0.0496,-0.0497,-0.0548,-0.0476,-0.0466,-0.0442,-0.0431,-0.0369,-0.0226,-0.0343,-0.0329,-0.0349,-0.0044,-0.0042,-0.002,0.0067,0.0144,0.0152,0.0158,0.0161,0.0119,0.0113,0,0,0,0,0,0,-0.0528,-0.0498,-0.0549,-0.0548,-0.0473,-0.0449,-0.0437,-0.0437,-0.0234,-0.0203,-0.0355,-0.0338,-0.0061,-0.0031,-0.0005,0.0102,0.0154,0.0162,0.0167,0.0125,0.0118,0.0111,0,0,0,0,0,0,-0.0526,-0.0532,-0.055,-0.0533,-0.0534,-0.0459,-0.0461,-0.044,-0.0397,-0.0249,-0.0206,-0.0328,-0.0054,-0.0018,0.0011,0.0113,0.0166,0.0174,0.0133,0.0123,0.0114,0.0187,0,0,0,0,0,0,-0.0524,-0.0531,-0.0551,-0.0535,-0.0537,-0.0557,-0.0468,-0.0446,-0.0429,-0.0404,-0.0214,-0.0172,-0.0045,-0.0004,0.002,0.0126,0.0181,0.0141,0.0129,0.0117,0.0193,0.0181,0.0171,0,0,0,0,0,-0.0521,-0.054,-0.0551,-0.0559,-0.0562,-0.0559,-0.0554,-0.047,-0.0435,-0.0405,-0.0353,-0.0176,-0.0061,-0.0004,0.0026,0.0139,0.0147,0.0132,0.0118,0.0198,0.0184,0.0172,0,0,0,0,0,0,-0.0501,-0.0521,-0.0529,-0.055,-0.055,-0.052,-0.0521,-0.049,-0.0436,-0.0412,-0.0267,-0.0225,-0.0133,-0.0109,-0.0049,0.0055,0.0074,0.0065,0.0124,0.0112,0.0101,0.0009,0.0188,0,0,0,0,0,-0.0531,-0.0551,-0.0562,-0.0586,-0.0596,-0.0579,-0.0578,-0.0524,-0.0488,-0.0453,-0.0345,-0.0275,-0.0193,-0.013,-0.0058,-0.0032,-0.0049,0.0037,0.0027,0.0019,-0.006,-0.0032,-0.0043,0.0063,0.0063,0.0063,0,0,-0.0543,-0.0557,-0.0572,-0.0588,-0.0592,-0.0591,-0.0551,-0.0544,-0.0519,-0.0425,-0.0362,-0.0286,-0.0209,-0.0132,-0.0092,-0.0076,-0.0031,0.0001,-0.0003,-0.0081,-0.0048,-0.0056,-0.0064,0.0053,0.0055,0.0056,0,0,-0.0557,-0.0586,-0.0602,-0.0607,-0.0623,-0.0608,-0.0611,-0.0587,-0.054,-0.0534,-0.0438,-0.0404,-0.0273,-0.0209,-0.0159,-0.0248,-0.0082,-0.0157,-0.025,-0.0217,-0.0222,-0.0227,-0.026,-0.0268,-0.0162,-0.0162,-0.0162,0,-0.0574,-0.0587,-0.0605,-0.0615,-0.0623,-0.0617,-0.0616,-0.0599,-0.0559,-0.0545,-0.0502,-0.042,-0.033,-0.0266,-0.0282,-0.0247,-0.022,-0.0149,-0.0215,-0.0221,-0.0226,-0.0259,-0.0269,-0.016,-0.016,-0.0161,-0.0161,0,-0.0583,-0.0603,-0.0615,-0.0625,-0.0631,-0.0633,-0.0626,-0.0614,-0.0587,-0.0558,-0.0513,-0.0479,-0.0431,-0.0367,-0.0333,-0.0311,-0.0275,-0.0199,-0.0136,-0.0229,-0.0263,-0.0273,-0.0158,-0.0158,-0.0159,-0.0159,0,0,-0.0597,-0.0617,-0.0627,-0.0626,-0.0633,-0.063,-0.0629,-0.0614,-0.0603,-0.0581,-0.0565,-0.0516,-0.0505,-0.0478,-0.0406,-0.0415,-0.0419,-0.0327,-0.0325,-0.0288,-0.036,-0.0296,-0.0302,-0.0271,-0.0273,-0.0274,-0.0361,0,-0.06,-0.0619,-0.0622,-0.0624,-0.0629,-0.063,-0.0624,-0.0611,-0.059,-0.0569,-0.0574,-0.052,-0.053,-0.0481,-0.05,-0.0421,-0.0447,-0.0408,-0.035,-0.0354,-0.0217,-0.0313,-0.0281,-0.0369,-0.0371,-0.0373,-0.0374,0,-0.0596,-0.0612,-0.0628,-0.0618,-0.0622,-0.0612,-0.0609,-0.0598,-0.0585,-0.0572,-0.0582,-0.0544,-0.059,-0.056,-0.0588,-0.0526,-0.0489,-0.0462,-0.0459,-0.0451,-0.031,-0.0274,-0.0394,-0.0393,-0.0391,-0.039,-0.0389,0,-0.0584,-0.06,-0.0613,-0.0617,-0.0619,-0.0612,-0.0597,-0.0591,-0.0583,-0.057,-0.0557,-0.059,-0.0582,-0.0589,-0.0595,-0.0542,-0.061,-0.0506,-0.0452,-0.0447,-0.0496,-0.049,-0.0551,-0.0551,-0.0551,-0.0551,-0.055,0,-0.0561,-0.0572,-0.0607,-0.061,-0.0607,-0.0602,-0.0583,-0.058,-0.0572,-0.0566,-0.0556,-0.0579,-0.0572,-0.0594,-0.0608,-0.0605,-0.0626,-0.0538,-0.0472,-0.0474,-0.0465,-0.0502,-0.0496,-0.0554,-0.0553,-0.0553,-0.0552,0,-0.0533,-0.0566,-0.0588,-0.0607,-0.0599,-0.06,-0.0569,-0.0559,-0.0552,-0.055,-0.0545,-0.0557,-0.0577,-0.0601,-0.0603,-0.0596,-0.0607,-0.0587,-0.0673,-0.0599,-0.0471,-0.0461,-0.0546,-0.0544,-0.0543,-0.0542,-0.0541,0,-0.0516,-0.0527,-0.0588,-0.0605,-0.0606,-0.0592,-0.0577,-0.0557,-0.0561,-0.0562,-0.0575,-0.056,-0.0569,-0.0571,-0.0596,-0.0624,-0.0589,-0.0611,-0.0518,-0.0548,-0.0474,-0.0466,-0.0458,-0.0539,-0.0539,-0.0539,-0.0538,0,-0.0482,-0.0531,-0.0556,-0.0603,-0.0606,-0.0596,-0.0575,-0.057,-0.0563,-0.0561,-0.055,-0.0525,-0.0527,-0.0539,-0.0539,-0.0567,-0.0613,-0.0598,-0.0599,-0.0511,-0.054,-0.0467,-0.046,-0.0534,-0.0535,-0.0535,-0.0536,0,-0.0472,-0.0493,-0.0552,-0.0573,-0.0604,-0.0601,-0.058,-0.0557,-0.0543,-0.0534,-0.0552,-0.0537,-0.0537,-0.0514,-0.0562,-0.054,-0.05,-0.0474,-0.0481,-0.0485,-0.042,-0.0445,-0.0404,0,0,0,0,0,-0.0448,-0.0458,-0.0497,-0.0528,-0.0568,-0.0582,-0.0588,-0.0577,-0.0572,-0.0539,-0.0526,-0.0523,-0.0488,-0.0514,-0.0471,-0.0552,-0.0531,-0.0503,-0.0512,-0.0512,-0.0516,-0.0441,0,0,0,0,0,0,-0.0435,-0.0476,-0.0486,-0.0497,-0.0508,-0.053,-0.0547,-0.0542,-0.0526,-0.0518,-0.0505,-0.0484,-0.0475,-0.0486,-0.0454,-0.0458,-0.0451,-0.0499,-0.0498,-0.0509,-0.0513,-0.0517,-0.0441,0,0,0,0,0]},{"header":{"parameterUnit":"m.s-1","parameterCategory":2,"la1":30.2991,"la2":30.254,"lo1":-89.0895,"lo2":-89.0444,"dy":0.0017,"dx":0.0017,"nx":28,"ny":28,"refTime":"2024-02-27T09:00:00:Z","depth":"4","parameterNumber":3,"parameterNumberName":"V-component_of_CURRENTS"},"data":[0,0,0,0,0,0,0,0,0,0,0,0,0,0,0,0,0,0,0,0,0,0,0,0,0,0,0,0,0,0,0,0,0,0,0,0,0,0,0,0,0,0,0,0,0,0,0,0,0,0,0,0,0,0,0,0,0,0,0.0399,0.0399,0,0.0376,0.0375,0.0375,0.0244,0.0241,0.0238,0.0235,0.0036,0.0034,0.0031,0,0,0,0,0,0,0,0,0,0,0,0,0,0.0348,0.0349,0.0399,0.0399,0.0399,0.0376,0.0375,0.0375,0.0244,0.0241,0.0237,0.0234,0.0037,0.0034,0.0031,0,0,0,0,0,0,0,0,0,0,0,0,0,0.035,0.0349,0.0399,0.0332,0.0326,0.0376,0.0375,0.0375,0.0245,0.0241,0.0236,0.0232,0.0038,0.0034,0.0031,0.0096,0,0,0.0019,0.0017,0,0,0,0,0,0,0,0,0.035,0.0352,0.0342,0.0337,0.0331,0.031,0.0285,0.0273,0.0246,0.0274,0.0235,0.023,0.0116,0.0106,0.0111,0.0086,0.0078,0.0019,0.0016,0.0015,0.0014,0,0,0,0,0,0,0,0.035,0.0352,0.0387,0.0343,0.0336,0.031,0.0305,0.0283,0.0215,0.0271,0.0262,0.0264,0.0111,0.0115,0.0105,0.0075,0.0019,0.0015,0.0013,0.0011,-0.0111,-0.0112,0,0,0,0,0,0,0.0362,0.0353,0.0388,0.0387,0.0332,0.0315,0.0309,0.0319,0.0219,0.0202,0.0268,0.0258,0.0124,0.0109,0.0097,0.0003,0.0015,0.0011,0.0009,-0.011,-0.0112,-0.0113,0,0,0,0,0,0,0.0361,0.0366,0.0389,0.037,0.0371,0.032,0.0333,0.0321,0.027,0.0219,0.0196,0.0222,0.012,0.0102,0.0047,-0.0,0.0009,0.0006,-0.0109,-0.0111,-0.0112,-0.008,0,0,0,0,0,0,0.036,0.0366,0.0381,0.0371,0.0373,0.0374,0.0337,0.0324,0.0283,0.0268,0.0174,0.0154,0.0115,0.0054,0.0044,-0.0005,0.0003,-0.0108,-0.011,-0.0112,-0.008,-0.008,-0.008,0,0,0,0,0,0.0358,0.0368,0.0382,0.0386,0.0394,0.0374,0.037,0.0319,0.0285,0.0257,0.021,0.0154,0.0032,0.0052,0.004,-0.0012,-0.0107,-0.0109,-0.0112,-0.008,-0.008,-0.008,0,0,0,0,0,0,0.0339,0.0357,0.037,0.0384,0.0371,0.035,0.0335,0.0306,0.0255,0.0229,0.0171,0.015,0.0084,0.0041,0.0063,-0.0055,-0.0058,-0.0062,-0.003,-0.0031,-0.0031,-0.0013,-0.0,0,0,0,0,0,0.0358,0.0375,0.0378,0.039,0.0385,0.0364,0.0351,0.0312,0.0272,0.0242,0.0177,0.0114,0.0081,0.0027,-0.0008,-0.0059,-0.0045,-0.0111,-0.0111,-0.0111,-0.0106,-0.0084,-0.008,-0.012,-0.012,-0.012,0,0,0.0356,0.0371,0.038,0.0389,0.0381,0.0363,0.034,0.0303,0.0275,0.0233,0.0157,0.0124,0.0075,0.0019,-0.0021,-0.0039,-0.0093,-0.0114,-0.0113,-0.0108,-0.0085,-0.0081,-0.0077,-0.0121,-0.0121,-0.0121,0,0,0.0347,0.0374,0.0378,0.0368,0.0354,0.0344,0.0324,0.0281,0.0243,0.0199,0.0163,0.0113,0.0029,-0.0005,-0.0029,-0.0049,-0.0073,-0.0098,-0.0111,-0.009,-0.0085,-0.0081,-0.0049,-0.0042,-0.0124,-0.0124,-0.0124,0,0.0344,0.0358,0.037,0.0359,0.0346,0.0328,0.0301,0.0284,0.0218,0.0193,0.0158,0.0079,0.0027,-0.0006,-0.003,-0.005,-0.0037,-0.0101,-0.0086,-0.0081,-0.0078,-0.0046,-0.0039,-0.0123,-0.0123,-0.0123,-0.0123,0,0.0326,0.0337,0.0329,0.0327,0.0309,0.0281,0.0262,0.022,0.0177,0.0156,0.0104,0.0073,0.0011,-0.0018,-0.0035,-0.0055,-0.0051,-0.0061,-0.0074,-0.0071,-0.0039,-0.0032,-0.0121,-0.0121,-0.0122,-0.0122,0,0,0.0312,0.0321,0.0317,0.0311,0.0284,0.0262,0.0226,0.0193,0.0162,0.0113,0.0077,0.0033,0.0009,-0.0017,-0.0045,-0.004,-0.0005,-0.0056,-0.0056,-0.0005,0.0052,-0.0005,-0.0003,-0.0013,-0.0012,-0.0011,0.0069,0,0.0291,0.0283,0.0283,0.025,0.0235,0.021,0.0182,0.0145,0.0114,0.0073,0.0063,0.0026,0.0014,-0.0023,-0.0013,0.0003,0.0012,-0.0025,0.0024,0.0026,-0.0009,0.0002,-0.0008,0.0074,0.0075,0.0077,0.0077,0,0.0257,0.0264,0.0241,0.0219,0.0207,0.0177,0.0123,0.0098,0.0065,0.0039,0.0017,0.0004,0.0007,-0.0007,0.0048,0.0024,0.0031,0.0052,0.0055,-0.0005,-0.0019,0.0064,0.009,0.0089,0.0088,0.0087,0.0087,0,0.0227,0.0221,0.0208,0.0198,0.0174,0.014,0.0114,0.0072,0.0058,0.002,0.0004,0.0012,0.0008,0.0047,0.0078,0.0056,0.0157,0.013,0.0097,0.0095,0.0112,0.0106,0.0165,0.0165,0.0165,0.0164,0.0164,0,0.0189,0.0176,0.0194,0.0178,0.0142,0.0121,0.0075,0.0043,0.0025,0.0014,-0.001,-0.0018,0.0019,0.0067,0.0098,0.0134,0.0176,0.0107,0.0109,0.0122,0.0117,0.0118,0.0111,0.0167,0.0167,0.0166,0.0166,0,0.0139,0.016,0.0146,0.0136,0.0125,0.0091,0.0061,0.0037,0.0021,0.0009,-0.0001,-0.0017,0.0008,0.0071,0.0131,0.0146,0.0195,0.019,0.0225,0.0227,0.0113,0.0107,0.0154,0.0153,0.0151,0.015,0.015,0,0.0113,0.0108,0.0115,0.0108,0.0096,0.0062,0.0036,0.0022,0.0015,0.0007,0.0004,0.0001,-0.001,0.0063,0.0104,0.0179,0.0162,0.021,0.0129,0.0114,0.0112,0.0107,0.0103,0.0148,0.0147,0.0147,0.0147,0,0.0063,0.0076,0.0069,0.0066,0.0046,0.0029,0.0001,-0.0007,-0.0013,0.0009,-0.0015,-0.0022,-0.0012,0.0011,0.0073,0.0121,0.0199,0.0196,0.0198,0.0122,0.0107,0.0105,0.0102,0.0143,0.0143,0.0144,0.0144,0,0.0026,0.0016,0.0024,0.0016,0.0006,-0.0022,-0.0036,-0.0048,-0.0053,-0.0038,-0.0044,-0.0046,-0.0027,-0.002,0.0049,0.0083,0.0052,0.0068,0.0075,0.008,0.0015,-0.0017,-0.0011,0,0,0,0,0,-0.0007,-0.002,-0.0027,-0.0043,-0.0046,-0.0048,-0.006,-0.0062,-0.0046,-0.0064,-0.0053,-0.0052,-0.0043,-0.0046,-0.0032,-0.0003,0.0057,0.0014,0.0079,0.012,0.0125,0.0053,0,0,0,0,0,0,-0.004,-0.0048,-0.0039,-0.0074,-0.0089,-0.0107,-0.0116,-0.0109,-0.0119,-0.0094,-0.0097,-0.0047,-0.0043,-0.0047,-0.0031,-0.0022,0.0019,0.0039,0.0039,0.0117,0.0122,0.0125,0.0054,0,0,0,0,0]}]]